Location: Cuiry
(49.3858°N, 3.7708°E)
Time: 23:47:28
(UTC+00:00)

Resurs 01 Rocket - Pass Details

Date: 12 January 2026
Orbit: 628 x 635 km, 97.7° (Epoch: 17 February)

Event Time Altitude Azimuth Distance (km) Brightness Sun altitude
Exits shadow 17:16:02 12° 89° (E) 1,859 3.4 -10.4°
Maximum altitude 17:18:03 16° 59° (ENE) 1,641 3.1 -10.7°
Drops below altitude 10° 17:20:44 10° 21° (NNE) 2,017 3.8 -11.1°
Sets 17:23:38 0° 1° (N) 2,931 4.8 -11.6°
